Flag for France Weather past 2 weeks in Strasbourg, France

Now
79 °F

Clear.


Feels Like: 81 °F
Forecast: 69 / 97 °F
Wind: 5 mph from Southwest

Location: Strasbourg Airport

Current Time: Jul 4, 2015 at 11:45:18 PM

Latest Report: Jul 4, 2015 at 11:00 PM


Visibility: 10 mi

Pressure: 30.07 "Hg

Humidity: 65%

Dew point: 66 °F

Location of StrasbourgLocation

Historic Weather in Strasbourg — Graph

°F

Strasbourg temperature yesterday

Maximum temperature yesterday: 99 °F (at 4:00 PM)
Minimum temperature yesterday: 70 °F (at 5:30 AM)
Average temperature yesterday: 85 °F

Past Weeks' High & Low Weather Summary

 TemperatureHumidityPressure
High100 °F (Jul 4, 4:00 PM)100% (Jun 22, 5:00 AM)30.21 "Hg (Jun 22, 5:00 AM)
Low48 °F (Jun 23, 5:30 AM)23% (Jul 1, 6:00 PM)29.77 "Hg (Jun 22, 7:00 PM)
Average70 °F63%30.10 "Hg
* Reported Jun 19 10:00 PM — Jul 4 10:30 PM, Strasbourg, Weather by CustomWeather, © 2015

Note: Actual official high and low records may vary slightly from our data, if they occured in-between our weather recording intervals... More about our weather records

Advertising

Strasbourg weather history for previous 24 hours

 ConditionsComfort  
Time TempWeatherWind HumidityBarometerVisibility
10:30 PM
Sat, Jul 4
79 °FSunny.5 mph61%30.07 "Hg10 mi
10:00 PM81 °FSunny.2 mph62%30.07 "Hg10 mi
9:30 PM82 °FSunny.3 mph58%30.07 "Hg10 mi
9:00 PM86 °FPassing clouds.3 mph55%30.07 "HgN/A
8:30 PM90 °FSunny.2 mph41%30.09 "Hg10 mi
8:00 PM91 °FPassing clouds.7 mph38%30.09 "HgN/A
7:30 PM93 °FSunny.9 mph34%30.09 "Hg10 mi
7:00 PM93 °FThunderstorms. Broken clouds.15 mph39%30.09 "HgN/A
6:30 PM95 °FThundershowers. Cloudy.6 mph36%30.09 "HgN/A
6:00 PM99 °FThundershowers. Cloudy.5 mph33%30.09 "HgN/A
5:30 PM100 °FExtremely hot.5 mph27%30.09 "HgN/A
5:00 PM100 °FPassing clouds.7 mph29%30.07 "HgN/A
4:30 PM100 °FSunny.5 mph27%30.09 "Hg10 mi
4:00 PM100 °FSunny.3 mph27%30.09 "Hg10 mi
3:30 PM99 °FSunny.6 mph31%30.09 "Hg10 mi
3:00 PM99 °FPassing clouds.5 mph29%30.09 "HgN/A
2:30 PM99 °FPassing clouds.6 mph33%30.09 "HgN/A
2:00 PM97 °FPassing clouds.7 mph32%30.12 "HgN/A
1:30 PM95 °FPassing clouds.7 mph34%30.12 "HgN/A
1:00 PM95 °FPassing clouds.7 mph34%30.12 "HgN/A
12:30 PM93 °FPassing clouds.6 mph39%30.12 "HgN/A
12:00 PM91 °FPassing clouds.7 mph44%30.12 "HgN/A
11:30 AM91 °FPassing clouds.7 mph46%30.12 "HgN/A
11:00 AM90 °FPassing clouds.7 mph49%30.12 "HgN/A
10:30 AM86 °FPassing clouds.7 mph55%30.12 "HgN/A
10:00 AM86 °FPassing clouds.3 mph55%30.12 "HgN/A
9:30 AM84 °FPassing clouds.5 mph55%30.12 "HgN/A
9:00 AM81 °FPassing clouds.6 mph62%30.12 "HgN/A
8:30 AM77 °FSunny.3 mph69%30.12 "Hg10 mi
8:00 AM75 °FPassing clouds.5 mph74%30.12 "HgN/A
7:30 AM75 °FSunny.3 mph74%30.12 "Hg10 mi
7:00 AM72 °FSunny.No wind83%30.12 "Hg10 mi
6:30 AM70 °FClear.2 mph83%30.12 "Hg10 mi
6:00 AM68 °FClear.1 mph83%30.12 "Hg10 mi
5:30 AM68 °FClear.1 mph83%30.12 "Hg10 mi
5:00 AM68 °FClear.2 mph88%30.12 "Hg10 mi
4:30 AM68 °FClear.No wind83%30.09 "Hg10 mi
4:00 AM70 °FClear.2 mph78%30.12 "Hg10 mi
3:30 AM68 °FClear.No wind83%30.12 "Hg10 mi
3:00 AM70 °FClear.2 mph83%30.12 "Hg10 mi
2:30 AM72 °FClear.1 mph78%30.12 "Hg10 mi
2:00 AM72 °FClear.No wind78%30.12 "Hg10 mi
1:30 AM73 °FClear.No wind74%30.12 "Hg10 mi
1:00 AM73 °FClear.1 mph74%30.12 "Hg10 mi
12:30 AM75 °FClear.6 mph69%30.12 "Hg10 mi
12:00 AM77 °FClear.No wind65%30.12 "Hg10 mi
11:30 PM
Fri, Jul 3
77 °FClear.1 mph65%30.12 "Hg10 mi
11:00 PM79 °FClear.No wind65%30.12 "Hg10 mi
Weather by CustomWeather, © 2015

See weather overviewHow to use our weather pages